Location: Champaign/Urbana Astronomical Society Observatory
(40.0333°N, 88.2833°W)
Time: 12:14:55
(UTC-05:00)

AIST 2D - Pass Details

Date: 24 May 2019
Orbit: 455 x 473 km, 97.2° (Epoch: 24 June)

Event Time Altitude Azimuth Distance (km) Brightness Sun altitude
Rises 23:57:49 0° 8° (N) 2,507 ? -28.0°
Reaches altitude 10° 23:59:54 10° 5° (N) 1,623 ? -28.1°
Enters shadow 00:01:31 25° 357° (N) 971 ? -28.2°
